Regional Weather Roundup
Issued by NWS

Home | Current Version | Previous Version | Text Only | Print | Product List | Glossary On
Versions: 1 2 3 4 5 6 7 8 9 10 11 12 13 14 15 16 17 18 19 20 21 22 23 24 25 26 27 28 29 30 31 32 33 34 35 36 37 38 39 40 41 42 43 44 45 46 47 48 49 50
000
ASUS43 KBIS 272220
RWRND

NORTH DAKOTA REGIONAL WEATHER ROUNDUP
NATIONAL WEATHER SERVICE BISMARCK ND
400 PM CST FRI FEB 27 2015

NOTE: "FAIR" INDICATES FEW OR NO CLOUDS BELOW 12,000 FEET WITH NO
SIGNIFICANT WEATHER AND/OR OBSTRUCTIONS TO VISIBILITY.


NDZ001>003-009>011-017-272300-
NORTHWEST NORTH DAKOTA

CITY           SKY/WX    TMP DP  RH WIND       PRES   REMARKS
WILLISTON      SUNNY     25   5  42 SE10      30.07F WCI  15
MINOT          SUNNY     18   2  49 S15       30.17F WCI   4
MINOT AFB      SUNNY     16   5  62 S12       30.17F WCI   3
$$

NDZ018>021-031>035-040>046-272300-
SOUTHWEST NORTH DAKOTA

CITY           SKY/WX    TMP DP  RH WIND       PRES   REMARKS
BISMARCK       SUNNY     20   5  52 S15       30.24F WCI   6
DICKINSON      SUNNY     25   5  42 S18       30.04F WCI  11
GARRISON         N/A     19   5  54 S15       30.15F WCI   5
HETTINGER ARPT SUNNY     26   5  40 S15G24    30.06F WCI  14
$$

NDZ004>008-012>016-024-026-027-054-272300-
NORTHEAST NORTH DAKOTA

CITY           SKY/WX    TMP DP  RH WIND       PRES   REMARKS
GRAND FORKS    MOSUNNY   17   3  54 SW12      30.37F WCI   4
GRND FRKS AFB  SUNNY     18   2  48 SW13      30.36F WCI   5
DEVILS LAKE    SUNNY     12   1  62 SW12      30.28F WCI  -2
$$

NDZ022-023-025-028>030-036>039-047>053-272300-
SOUTHEAST NORTH DAKOTA

CITY           SKY/WX    TMP DP  RH WIND       PRES   REMARKS
FARGO          SUNNY     17   1  49 SW8       30.42F WCI   7
JAMESTOWN      SUNNY     15   1  53 S14       30.30F WCI   0
$$



USA.gov is the U.S. government's official web portal to all federal, state and local government web resources and services.